EW9451 Weather Reports


time (UTC)temp
C
wind
direction
speed
KPH
gust
KPH
rain 1hr
cm
rain 24hr
cm
rain mn
cm
humidity
%
barometer
mb
20260510123005 11 235 6.4 17.7 0.00 0.08 0.08 86 1003.6
20260510122504 11 69 3.2 9.7 0.00 0.08 0.08 87 1003.6
20260510122008 11 162 1.6 8.0 0.00 0.08 0.08 88 1003.6
20260510121504 11 159 1.6 11.3 0.00 0.08 0.08 89 1003.6
20260510121007 11 200 3.2 11.3 0.00 0.08 0.08 89 1003.6
20260510120505 11 240 3.2 9.7 0.00 0.08 0.08 89 1003.5
20260510120001 10 182 1.6 12.9 0.00 0.08 0.08 89 1003.4
20260510115501 10 152 4.8 16.1 0.00 0.08 0.08 89 1003.4
20260510115003 10 150 4.8 16.1 0.00 0.08 0.08 89 1003.6
20260510114607 10 193 4.8 14.5 0.00 0.08 0.08 89 1003.7
20260510114100 10 257 3.2 14.5 0.00 0.08 0.08 90 1003.5
20260510113559 10 179 1.6 14.5 0.00 0.08 0.08 90 1003.4
20260510113059 10 301 6.4 19.3 0.00 0.08 0.08 90 1003.4
20260510112558 10 207 8.0 19.3 0.00 0.08 0.08 90 1003.3
20260510112058 10 260 1.6 8.0 0.00 0.08 0.08 93 1003.1
20260510111558 10 163 3.2 9.7 0.00 0.08 0.08 93 1003.2
20260510111101 10 180 1.6 8.0 0.00 0.08 0.08 93 1003.4
20260510110557 10 215 3.2 8.0 0.00 0.08 0.08 93 1003.4
20260510110058 9 237 1.6 8.0 0.00 0.08 0.08 93 1003.3
20260510105556 9 180 0.0 12.9 0.00 0.08 0.08 93 1003.1
20260510105100 9 176 1.6 12.9 0.00 0.08 0.08 93 1003.0
20260510104610 9 113 0.0 4.8 0.00 0.08 0.08 93 1002.8
20260510104058 9 128 1.6 4.8 0.00 0.08 0.08 93 1002.5
20260510103556 9 118 1.6 4.8 0.00 0.08 0.08 94 1002.8
20260510103057 9 119 0.0 6.4 0.00 0.08 0.08 93 1003.0
20260510102555 8 167 1.6 6.4 0.00 0.08 0.08 93 1003.0
20260510102052 8 238 1.6 11.3 0.00 0.08 0.08 94 1002.8
20260510101552 8 202 0.0 11.3 0.00 0.08 0.08 94 1002.4
20260510101051 8 227 1.6 14.5 0.00 0.08 0.08 93 1002.3
20260510100551 8 115 3.2 14.5 0.00 0.08 0.08 93 1002.1
20260510100056 8 111 3.2 6.4 0.00 0.08 0.08 92 1002.0
20260510095550 8 136 1.6 8.0 0.00 0.08 0.08 93 1002.3
20260510095049 8 132 3.2 8.0 0.00 0.08 0.08 93 1002.3
20260510094551 8 173 3.2 9.7 0.00 0.08 0.08 93 1002.4
20260510094052 8 188 3.2 9.7 0.00 0.08 0.08 94 1002.4
20260510093551 8 124 3.2 8.0 0.00 0.08 0.08 93 1002.3
20260510093047 8 130 3.2 8.0 0.00 0.08 0.08 92 1002.2
20260510092548 8 156 1.6 4.8 0.00 0.08 0.08 92 1002.2
20260510092049 8 155 1.6 6.4 0.00 0.08 0.08 93 1002.1
20260510091547 8 166 0.0 4.8 0.00 0.08 0.08 93 1002.1
20260510091048 8 208 0.0 4.8 0.00 0.08 0.08 93 1002.1
20260510090547 8 191 0.0 3.2 0.00 0.08 0.08 93 1001.9
20260510090046 8 169 0.0 3.2 0.00 0.08 0.08 92 1001.8
20260510085545 8 149 0.0 8.0 0.00 0.08 0.08 92 1001.7
20260510085046 8 188 3.2 8.0 0.00 0.08 0.08 92 1001.6
20260510084551 9 152 0.0 4.8 0.00 0.08 0.08 92 1001.8
20260510084043 9 99 0.0 3.2 0.00 0.08 0.08 92 1001.8
20260510083541 9 128 1.6 3.2 0.03 0.08 0.08 92 1001.9
20260510083044 9 119 0.0 3.2 0.03 0.08 0.08 92 1001.9
20260510082541 9 130 0.0 6.4 0.03 0.08 0.08 92 1001.9
20260510082041 10 151 0.0 8.0 0.03 0.08 0.08 92 1002.0
20260510081541 10 201 3.2 9.7 0.05 0.08 0.08 92 1002.2
20260510081040 10 164 1.6 9.7 0.05 0.08 0.08 92 1002.3
20260510080540 10 203 3.2 11.3 0.05 0.08 0.08 92 1002.3
20260510080043 10 178 1.6 6.4 0.08 0.08 0.08 92 1002.4
20260510075538 10 289 0.0 14.5 0.08 0.08 0.08 91 1002.2
20260510075040 10 336 0.0 14.5 0.08 0.08 0.08 91 1002.1
20260510074538 10 259 1.6 16.1 0.08 0.08 0.08 91 1002.1
20260510074038 10 263 1.6 19.3 0.08 0.08 0.08 91 1002.1
20260510073540 10 194 8.0 20.9 0.05 0.05 0.05 91 1002.1
20260510073044 10 208 9.7 24.1 0.05 0.05 0.05 90 1002.0
20260510072536 10 130 4.8 24.1 0.05 0.05 0.05 90 1002.1
20260510072034 10 142 3.2 17.7 0.05 0.05 0.05 90 1002.2
20260510071543 10 211 8.0 14.5 0.03 0.03 0.03 89 1002.3
20260510071036 10 190 3.2 11.3 0.03 0.03 0.03 88 1002.4
20260510070534 10 308 4.8 14.5 0.03 0.03 0.03 87 1002.5
20260510070032 10 126 4.8 16.1 0.00 0.00 0.00 86 1002.4
20260510065532 10 137 4.8 16.1 0.00 0.00 0.00 85 1002.4
20260510065035 10 162 1.6 8.0 0.00 0.00 0.00 84 1002.4
20260510064531 10 175 1.6 6.4 0.00 0.00 0.00 83 1002.4
20260510064030 10 182 1.6 8.0 0.00 0.00 0.00 82 1002.3
20260510063530 10 199 0.0 8.0 0.00 0.00 0.00 83 1002.2
20260510063031 10 190 1.6 4.8 0.00 0.00 0.00 83 1002.1
20260510062531 10 197 1.6 6.4 0.00 0.00 0.00 83 1002.1
20260510062030 10 157 0.0 9.7 0.00 0.00 0.00 83 1001.9
20260510061530 10 71 4.8 9.7 0.00 0.00 0.00 83 1001.9
20260510061029 10 196 3.2 9.7 0.00 0.00 0.00 83 1001.9
20260510060531 10 128 3.2 19.3 0.00 0.00 0.00 82 1002.0
20260510060034 10 133 4.8 19.3 0.00 0.00 0.00 82 1002.1
20260510055527 10 174 3.2 17.7 0.00 0.00 0.00 82 1002.3
20260510055027 10 163 3.2 17.7 0.00 0.00 0.00 82 1002.3
20260510054527 10 138 8.0 16.1 0.00 0.00 0.00 82 1002.2
20260510054026 10 192 4.8 16.1 0.00 0.00 0.00 83 1002.3
20260510053524 10 185 8.0 16.1 0.00 0.00 0.00 83 1002.2
20260510053024 10 192 4.8 12.9 0.00 0.00 0.00 83 1002.3
20260510052523 10 178 6.4 12.9 0.00 0.00 0.00 83 1002.2
20260510052023 10 136 3.2 12.9 0.00 0.00 0.00 83 1002.2
20260510051529 10 141 4.8 12.9 0.00 0.00 0.00 83 1002.2
20260510051022 10 169 4.8 16.1 0.00 0.00 0.00 83 1002.2
20260510050523 10 132 6.4 17.7 0.00 0.00 0.00 83 1002.2
20260510050020 10 194 3.2 17.7 0.00 0.00 0.00 83 1002.1
20260510045520 10 179 4.8 14.5 0.00 0.00 0.00 83 1002.0
20260510045021 10 189 4.8 17.7 0.00 0.00 0.00 83 1002.0
20260510044522 10 175 3.2 16.1 0.00 0.00 0.00 83 1002.1
20260510044018 10 115 3.2 16.1 0.00 0.00 0.00 83 1002.1
20260510043518 10 170 4.8 12.9 0.00 0.00 0.00 83 1002.1
20260510043018 10 126 4.8 19.3 0.00 0.00 0.00 83 1001.9
20260510042516 10 136 6.4 19.3 0.00 0.00 0.00 83 1002.1
20260510042015 10 167 3.2 16.1 0.00 0.00 0.00 83 1001.9
20260510041515 10 126 6.4 16.1 0.00 0.00 0.00 83 1001.8
20260510041014 10 185 4.8 12.9 0.00 0.00 0.00 83 1001.7
20260510040513 10 159 3.2 17.7 0.00 0.00 0.00 83 1001.7
20260510040012 10 171 6.4 19.3 0.00 0.00 0.00 83 1001.6
20260510035510 10 141 4.8 19.3 0.00 0.00 0.00 83 1001.7
20260510035010 10 176 6.4 14.5 0.00 0.00 0.00 83 1001.8
20260510034513 10 152 6.4 16.1 0.00 0.00 0.00 83 1001.9
20260510034010 10 134 4.8 19.3 0.00 0.00 0.00 83 1001.9
20260510033510 10 172 4.8 20.9 0.00 0.00 0.00 83 1002.0
20260510033009 10 153 4.8 20.9 0.00 0.00 0.00 83 1002.1
20260510032509 10 173 4.8 12.9 0.00 0.00 0.00 83 1002.2
20260510032009 10 132 3.2 16.1 0.00 0.00 0.00 83 1002.1
20260510031509 10 174 4.8 19.3 0.00 0.00 0.00 84 1002.1
20260510031108 10 132 6.4 19.3 0.00 0.00 0.00 84 1002.0
20260510030507 9 122 6.4 17.7 0.00 0.00 0.00 84 1002.1
20260510030007 9 142 3.2 14.5 0.00 0.00 0.00 85 1002.3
20260510025507 9 154 4.8 12.9 0.00 0.00 0.00 85 1002.2
20260510025006 9 170 4.8 14.5 0.00 0.00 0.00 85 1002.2
20260510024507 9 155 6.4 14.5 0.00 0.00 0.00 85 1002.2
20260510024005 9 142 4.8 11.3 0.00 0.00 0.00 85 1002.2
20260510023504 9 130 4.8 12.9 0.00 0.00 0.00 85 1002.2
20260510023007 9 143 4.8 14.5 0.00 0.00 0.00 85 1002.3
20260510022505 8 128 6.4 14.5 0.00 0.00 0.00 85 1002.2
20260510022005 8 126 6.4 14.5 0.00 0.00 0.00 86 1002.3
20260510021503 8 132 4.8 11.3 0.00 0.00 0.00 86 1002.4
20260510021007 8 103 3.2 16.1 0.00 0.00 0.00 86 1002.5
20260510020503 8 165 4.8 16.1 0.00 0.00 0.00 86 1002.7
20260510020003 8 144 4.8 14.5 0.00 0.00 0.00 85 1002.6
20260510015503 8 111 4.8 12.9 0.00 0.00 0.00 85 1002.6
20260510015002 8 130 6.4 12.9 0.00 0.00 0.00 85 1002.6
20260510014502 8 136 6.4 14.5 0.00 0.00 0.00 85 1002.5
20260510014002 9 132 9.7 14.5 0.00 0.00 0.00 85 1002.5
20260510013501 9 157 8.0 12.9 0.00 0.00 0.00 85 1002.5
20260510013109 9 180 6.4 12.9 0.00 0.00 0.00 85 1002.6
20260510012602 9 137 6.4 11.3 0.00 0.00 0.00 85 1002.7
20260510012100 8 118 6.4 12.9 0.00 0.00 0.00 84 1002.8
20260510011600 8 132 6.4 12.9 0.00 0.00 0.00 84 1002.8
20260510011100 8 148 4.8 16.1 0.00 0.00 0.00 84 1002.8
20260510010602 9 159 4.8 16.1 0.00 0.00 0.00 84 1002.8
20260510010112 9 148 4.8 12.9 0.00 0.00 0.00 83 1002.9
20260510005558 9 134 3.2 12.9 0.00 0.00 0.00 83 1002.9
20260510005057 9 119 4.8 12.9 0.00 0.00 0.00 83 1003.0
20260510004603 9 131 3.2 11.3 0.00 0.00 0.00 83 1003.1
20260510004057 9 120 4.8 9.7 0.00 0.00 0.00 83 1003.0
20260510003558 8 123 4.8 11.3 0.00 0.00 0.00 83 1003.0
20260510003102 9 132 3.2 11.3 0.00 0.00 0.00 83 1003.0
20260510002600 9 138 4.8 9.7 0.00 0.00 0.00 83 1003.1
20260510002057 9 131 4.8 12.9 0.00 0.00 0.00 83 1003.0
20260510001558 9 133 4.8 12.9 0.00 0.00 0.00 82 1003.1
20260510001059 9 129 3.2 11.3 0.00 0.00 0.00 82 1003.1
20260510000555 9 141 4.8 12.9 0.00 0.00 0.00 82 1003.0
20260510000113 9 109 4.8 11.3 0.00 0.00 0.00 81 1003.0
20260509235556 9 131 3.2 8.0 0.00 0.00 0.00 81 1002.9
20260509235055 10 117 3.2 14.5 0.00 0.00 0.00 80 1002.9
20260509234605 10 131 4.8 14.5 0.00 0.00 0.00 80 1002.9
20260509234058 10 138 3.2 11.3 0.00 0.00 0.00 79 1002.9
20260509233554 10 132 3.2 11.3 0.00 0.00 0.00 79 1003.0
20260509233055 10 138 3.2 19.3 0.00 0.00 0.00 78 1002.9
20260509232555 10 188 6.4 19.3 0.00 0.00 0.00 78 1002.8
20260509232054 10 121 3.2 20.9 0.00 0.00 0.00 78 1002.7
20260509231553 10 134 9.7 20.9 0.00 0.00 0.00 78 1002.8
20260509231053 10 206 6.4 19.3 0.00 0.00 0.00 78 1002.9
20260509230553 10 130 1.6 14.5 0.00 0.00 0.00 78 1002.8
20260509230052 10 126 6.4 14.5 0.00 0.00 0.00 78 1002.8
20260509225552 10 132 3.2 14.5 0.00 0.00 0.00 78 1002.8
20260509225051 10 137 4.8 14.5 0.00 0.00 0.00 77 1002.9
20260509224552 10 181 4.8 12.9 0.00 0.00 0.00 77 1002.9
20260509224053 10 171 4.8 17.7 0.00 0.00 0.00 77 1002.9
20260509223549 10 165 3.2 17.7 0.00 0.00 0.00 77 1002.9
20260509223050 10 138 6.4 14.5 0.00 0.00 0.00 76 1003.0
20260509222549 10 118 6.4 19.3 0.00 0.00 0.00 77 1003.0
20260509222048 10 133 6.4 20.9 0.00 0.00 0.00 76 1003.0
20260509221604 10 134 6.4 14.5 0.00 0.00 0.00 76 1003.1
20260509221048 11 149 4.8 9.7 0.00 0.00 0.00 76 1003.1
20260509220550 11 147 3.2 17.7 0.00 0.00 0.00 76 1003.2
20260509220059 11 142 3.2 17.7 0.00 0.00 0.00 76 1003.0
20260509215546 10 111 6.4 17.7 0.00 0.00 0.00 76 1003.0
20260509215046 10 108 4.8 24.1 0.00 0.00 0.00 76 1003.1
20260509214545 11 140 8.0 24.1 0.00 0.00 0.00 75 1003.0
20260509214045 11 138 6.4 22.5 0.00 0.00 0.00 76 1003.2
20260509213545 10 144 4.8 19.3 0.00 0.00 0.00 76 1003.2
20260509213045 10 132 6.4 22.5 0.00 0.00 0.00 76 1003.3
20260509212545 10 128 6.4 30.6 0.00 0.00 0.00 76 1003.2
20260509212046 10 159 6.4 30.6 0.00 0.00 0.00 76 1003.2
20260509211546 10 132 6.4 17.7 0.00 0.00 0.00 76 1003.2
20260509211045 10 130 6.4 20.9 0.00 0.00 0.00 75 1003.3
20260509210543 10 120 8.0 20.9 0.00 0.00 0.00 75 1003.4
20260509210049 11 169 6.4 19.3 0.00 0.00 0.00 75 1003.4
20260509205541 11 134 11.3 25.7 0.00 0.00 0.00 74 1003.4
20260509205041 11 121 8.0 25.7 0.00 0.00 0.00 74 1003.4
20260509204541 10 164 6.4 16.1 0.00 0.00 0.00 74 1003.4
20260509204041 10 153 6.4 22.5 0.00 0.00 0.00 74 1003.4
20260509203541 10 168 9.7 24.1 0.00 0.00 0.00 75 1003.5
20260509203045 11 198 8.0 19.3 0.00 0.00 0.00 74 1003.6
20260509202540 11 130 6.4 16.1 0.00 0.00 0.00 72 1003.6
20260509202043 11 164 8.0 16.1 0.00 0.00 0.00 72 1003.6
20260509201541 11 209 6.4 20.9 0.00 0.00 0.00 70 1003.7
20260509201039 11 133 6.4 20.9 0.00 0.00 0.00 70 1003.7
20260509200539 12 159 4.8 17.7 0.00 0.00 0.00 69 1003.6
20260509200043 12 83 6.4 17.7 0.00 0.00 0.00 69 1003.6
20260509195539 12 150 8.0 14.5 0.00 0.00 0.00 67 1003.6
20260509195041 12 138 4.8 11.3 0.00 0.00 0.00 70 1003.5
20260509194538 12 127 3.2 12.9 0.00 0.00 0.00 71 1003.6
20260509194037 12 130 6.4 14.5 0.00 0.00 0.00 71 1003.6
20260509193539 12 177 3.2 14.5 0.00 0.00 0.00 72 1003.6
20260509193044 11 129 6.4 14.5 0.00 0.00 0.00 71 1003.6
20260509192537 11 105 8.0 16.1 0.00 0.00 0.00 73 1003.6
20260509192045 11 173 8.0 14.5 0.00 0.00 0.00 74 1003.7
20260509191543 11 142 6.4 14.5 0.00 0.00 0.00 75 1003.8
20260509191035 11 135 6.4 11.3 0.00 0.00 0.00 74 1003.9
20260509190537 11 133 6.4 11.3 0.00 0.00 0.00 75 1003.9
20260509190043 11 148 4.8 11.3 0.00 0.00 0.00 74 1004.0
20260509185533 10 126 6.4 11.3 0.00 0.00 0.00 75 1004.1
20260509185032 10 142 4.8 22.5 0.00 0.00 0.00 76 1004.2
20260509184536 11 134 9.7 22.5 0.00 0.00 0.00 73 1004.3
20260509184031 11 126 6.4 11.3 0.00 0.00 0.00 74 1004.4
20260509183534 11 158 6.4 16.1 0.00 0.00 0.00 73 1004.5
20260509183038 11 162 4.8 14.5 0.00 0.00 0.00 71 1004.5
20260509182530 12 128 6.4 16.1 0.00 0.00 0.00 65 1004.5
20260509182031 12 134 6.4 17.7 0.00 0.00 0.00 65 1004.5
20260509181529 12 123 9.7 17.7 0.00 0.00 0.00 62 1004.4
20260509181032 12 138 6.4 17.7 0.00 0.00 0.00 61 1004.4
20260509180529 13 111 8.0 16.1 0.00 0.00 0.00 59 1004.4
20260509180028 13 134 8.0 19.3 0.00 0.00 0.00 58 1004.3
20260509175527 13 133 9.7 19.3 0.00 0.00 0.00 56 1004.4
20260509175028 13 115 9.7 19.3 0.00 0.00 0.00 54 1004.3
20260509174528 14 131 11.3 16.1 0.00 0.00 0.00 51 1004.3
20260509174027 14 136 6.4 14.5 0.00 0.00 0.00 52 1004.3
20260509173526 15 136 6.4 12.9 0.00 0.00 0.00 49 1004.4
20260509173031 15 140 3.2 14.5 0.00 0.00 0.00 47 1004.4
20260509172526 15 134 4.8 16.1 0.00 0.00 0.00 44 1004.4
20260509172026 15 145 4.8 16.1 0.00 0.00 0.00 43 1004.4
20260509171530 15 176 8.0 16.1 0.00 0.00 0.00 42 1004.3
20260509171027 15 151 6.4 24.1 0.00 0.00 0.00 41 1004.4
20260509170527 15 144 9.7 24.1 0.00 0.00 0.00 39 1004.4
20260509170029 15 175 6.4 19.3 0.00 0.00 0.00 40 1004.4
20260509165523 15 186 8.0 20.9 0.00 0.00 0.00 40 1004.5
20260509165022 15 53 8.0 19.3 0.00 0.00 0.00 39 1004.5
20260509164522 15 126 4.8 19.3 0.00 0.00 0.00 40 1004.6
20260509164026 15 130 6.4 14.5 0.00 0.00 0.00 39 1004.6
20260509163522 15 90 4.8 12.9 0.00 0.00 0.00 36 1004.7
20260509163020 15 174 6.4 19.3 0.00 0.00 0.00 38 1004.7
20260509162523 15 199 8.0 19.3 0.00 0.00 0.00 35 1004.8
20260509162022 15 84 8.0 16.1 0.00 0.00 0.00 34 1004.8
20260509161520 15 152 4.8 12.9 0.00 0.00 0.00 34 1004.8
20260509161018 15 115 4.8 16.1 0.00 0.00 0.00 33 1005.0
20260509160518 16 144 8.0 17.7 0.00 0.00 0.00 34 1005.1
20260509160019 15 169 6.4 17.7 0.00 0.00 0.00 35 1005.2
20260509155515 15 109 1.6 9.7 0.00 0.00 0.00 37 1005.2
20260509155019 15 63 3.2 14.5 0.00 0.00 0.00 39 1005.2
20260509154514 14 15 3.2 22.5 0.00 0.00 0.00 37 1005.3
20260509154013 14 219 6.4 22.5 0.00 0.00 0.00 35 1005.4
20260509153511 15 277 3.2 14.5 0.00 0.00 0.00 37 1005.6
20260509153013 15 233 4.8 16.1 0.00 0.00 0.00 36 1005.6
20260509152511 15 150 8.0 16.1 0.00 0.00 0.00 36 1005.8
20260509152011 15 154 8.0 14.5 0.00 0.00 0.00 36 1005.8
20260509151510 15 123 3.2 14.5 0.00 0.00 0.00 38 1005.9
20260509151008 14 133 1.6 14.5 0.00 0.00 0.00 38 1005.8
20260509150507 14 139 4.8 11.3 0.00 0.00 0.00 36 1005.9
20260509150007 14 211 1.6 6.4 0.00 0.00 0.00 37 1005.8
20260509145506 14 263 1.6 12.9 0.00 0.00 0.00 38 1005.9
20260509145008 13 120 1.6 12.9 0.00 0.00 0.00 38 1005.9
20260509144505 13 255 1.6 11.3 0.00 0.00 0.00 37 1006.0
20260509144004 13 144 1.6 12.9 0.00 0.00 0.00 39 1006.1
20260509143501 13 315 1.6 12.9 0.00 0.00 0.00 38 1006.1
20260509143000 13 258 4.8 22.5 0.00 0.00 0.00 39 1006.1
20260509142600 13 157 3.2 22.5 0.00 0.00 0.00 39 1006.2
20260509142059 13 144 8.0 17.7 0.00 0.00 0.00 38 1006.1
20260509141559 13 281 3.2 12.9 0.00 0.00 0.00 39 1006.3
20260509141100 12 218 3.2 12.9 0.00 0.00 0.00 40 1006.2
20260509140558 12 277 4.8 12.9 0.00 0.00 0.00 41 1006.3
20260509140057 12 36 1.6 9.7 0.00 0.00 0.00 43 1006.2
20260509135559 12 161 1.6 16.1 0.00 0.00 0.00 43 1006.3
20260509135056 12 325 1.6 16.1 0.00 0.00 0.00 42 1006.3
20260509134607 12 189 3.2 11.3 0.00 0.00 0.00 42 1006.4
20260509134056 12 273 4.8 14.5 0.00 0.00 0.00 42 1006.2
20260509133555 12 235 3.2 14.5 0.00 0.00 0.00 42 1006.2
20260509133055 12 333 4.8 12.9 0.00 0.00 0.00 42 1006.3
20260509132555 12 238 4.8 14.5 0.00 0.00 0.00 41 1006.3
20260509132057 12 275 3.2 19.3 0.00 0.00 0.00 42 1006.4
20260509131622 12 205 4.8 19.3 0.00 0.00 0.00 41 1006.5
20260509131053 12 242 1.6 19.3 0.00 0.00 0.00 42 1006.6
20260509130552 11 234 8.0 17.7 0.00 0.00 0.00 41 1006.6
20260509125549 11 257 4.8 17.7 0.00 0.00 0.00 42 1006.6
20260509125051 11 244 4.8 12.9 0.00 0.00 0.00 45 1006.7
20260509124549 11 254 3.2 9.7 0.00 0.00 0.00 46 1006.8
20260509124045 10 181 1.6 8.0 0.00 0.00 0.00 50 1006.8
20260509123544 10 292 1.6 12.9 0.00 0.00 0.00 50 1006.8